Theta_e
349 347 346 345 344 345 344 344 345 346 346 346 346 346 345 345 346 346 346 345 344 344 342 341 339 338 337 336 335 336 333 335
349 347 345 345 345 343 342 343 343 343 344 344 343 343 343 343 344 344 345 343 341 340 338 337 337 337 337 337 335 335 332 333
351 347 346 347 346 345 342 342 342 342 343 343 340 340 341 341 339 341 343 341 340 339 338 337 336 335 335 335 334 331 335 336
350 350 348 348 345 348 345 343 342 343 342 343 342 341 341 338 339 340 341 340 339 338 337 335 332 331 331 332 330 333 338 336
349 353 355 350 348 347 347 344 343 343 345 346 343 342 344 340 341 340 340 338 336 334 333 332 331 331 333 334 333 337 338 337
347 350 354 356 350 348 348 346 347 345 344 350 348 344 346 344 339 342 339 338 337 338 337 338 337 337 337 336 335 336 336 336
346 348 354 355 357 350 349 350 347 348 347 349 347 344 347 344 343 341 342 341 340 339 340 340 340 339 338 337 335 336 338 336
346 346 355 353 354 357 353 353 350 349 347 348 352 348 350 344 344 342 342 342 341 341 341 341 340 340 338 337 336 337 338 338
346 347 352 354 353 353 352 350 349 348 347 355 351 351 350 349 344 343 343 345 346 343 342 342 341 340 337 337 338 339 338 338
343 345 347 354 354 352 350 349 350 348 348 350 353 351 350 350 344 343 345 345 343 342 341 340 340 339 339 337 338 339 341 339
341 348 347 350 352 350 351 353 350 348 348 347 352 350 350 349 346 346 350 345 345 343 343 344 340 340 339 339 339 338 340 337
344 348 350 352 351 351 347 347 348 349 347 347 351 349 350 350 346 349 348 344 345 344 345 344 341 338 337 337 341 340 340 338
342 347 352 349 346 346 345 345 344 346 346 349 349 350 351 351 347 347 348 346 346 348 346 345 342 343 338 339 340 342 344 342
342 345 347 348 346 346 346 346 346 345 346 350 349 350 351 349 349 347 347 345 347 347 346 343 342 343 337 336 329 333 328 333
340 343 347 350 351 349 349 349 348 346 346 346 349 351 351 350 350 348 348 348 345 347 345 344 339 342 344 336 321 319 327 320
333 341 345 348 353 349 349 343 341 344 346 347 348 352 351 350 350 350 349 348 347 347 347 345 343 338 345 340 340 337 321 314
332 333 338 345 348 350 349 348 348 348 349 350 351 353 354 352 351 351 349 348 349 349 348 346 345 344 343 333 327 319 319 317
336 337 338 342 346 349 349 350 350 347 348 348 349 351 353 354 353 351 351 349 348 347 346 344 343 340 339 332 326 317 314 313
339 337 336 341 345 347 348 348 347 348 348 347 348 347 349 350 350 345 343 343 343 344 344 341 340 336 335 334 328 326 326 319
332 331 333 339 343 345 347 347 346 346 347 348 348 348 349 351 351 346 343 341 340 340 340 339 338 336 335 333 327 328 327 320
Wind_Speed
15 15 14 11 11 12 12 11 11 11 11 11 11 10 10 10 9 8 7 7 7 7 6 6 6 6 6 6 7 7 10 10
16 16 16 14 13 7 8 10 10 10 10 10 10 9 9 9 9 9 8 8 8 8 7 7 7 7 7 7 8 9 11 12
16 17 17 16 15 14 10 9 9 9 10 9 9 10 12 13 11 11 11 9 9 9 9 9 8 9 9 9 8 8 11 6
17 17 17 16 13 14 15 13 12 12 12 13 11 11 11 11 11 12 10 10 9 10 9 9 9 9 9 10 8 11 5 7
18 16 15 17 14 11 9 9 10 10 14 13 12 9 8 9 7 8 9 11 9 11 10 9 12 10 9 11 11 9 6 5
19 20 16 15 11 11 11 11 10 10 13 14 10 8 9 8 8 10 10 9 11 11 9 11 12 12 10 9 8 7 7 5
19 18 17 15 14 12 11 10 11 12 12 13 12 11 9 10 9 9 9 10 10 10 10 9 10 11 11 11 11 11 10 5
18 20 17 17 15 14 10 10 11 11 11 12 15 11 9 10 10 10 10 10 10 10 10 10 10 10 12 12 12 11 12 11
19 18 17 18 18 16 12 11 12 11 12 12 14 14 12 11 11 10 10 10 11 10 10 10 10 9 12 11 11 13 12 12
19 17 19 18 16 14 13 12 11 12 12 12 15 15 15 12 11 11 11 9 10 10 10 10 11 11 10 10 11 12 13 13
18 18 19 20 17 14 14 14 12 12 12 12 14 16 16 13 11 11 10 10 10 10 10 11 10 7 12 11 11 10 6 5
17 15 17 15 13 12 12 12 12 12 12 13 15 14 17 14 13 12 12 11 11 11 12 11 10 9 9 10 7 6 5 6
18 17 16 12 13 13 13 12 12 12 13 16 16 14 16 15 13 13 13 12 12 12 11 13 11 8 9 10 11 11 11 8
15 18 18 15 13 12 11 11 11 12 12 13 15 15 16 15 15 14 15 12 14 14 14 11 10 11 9 10 7 7 3 4
16 17 17 17 16 11 9 10 10 11 12 12 13 16 16 16 16 15 14 13 12 14 14 16 12 11 14 8 2 6 2 3
13 14 16 15 16 13 13 12 12 12 10 11 12 16 16 17 17 16 15 12 14 13 13 14 13 13 8 11 13 7 6 4
6 10 13 13 13 13 11 12 9 9 9 12 12 11 15 17 17 17 16 13 14 14 13 14 12 11 11 4 3 1 1 4
4 5 6 8 10 12 14 13 11 9 9 9 8 8 9 13 16 15 14 14 14 12 13 14 13 13 11 8 8 5 6 5
6 5 4 5 8 10 12 13 13 13 11 9 10 8 8 11 10 10 11 13 13 13 13 13 14 12 14 10 9 10 6 6
6 4 3 4 5 7 8 11 9 9 11 10 9 9 9 11 12 14 15 14 13 13 10 10 11 11 14 11 8 10 8 7
Wind_Direction
163 179 177 176 177 176 177 169 173 170 167 168 169 170 173 174 181 179 174 171 173 183 188 197 206 220 233 244 261 277 286 285
172 180 182 189 190 184 178 170 176 177 175 175 172 176 184 189 188 188 183 184 186 191 194 204 212 223 237 238 245 256 255 260
184 184 184 188 194 184 180 182 181 179 182 187 177 201 191 188 202 174 186 194 192 198 200 206 213 225 231 233 240 241 232 237
189 194 190 192 199 188 193 192 197 199 198 189 210 219 201 213 191 170 186 199 201 206 213 216 215 232 202 210 233 248 231 259
198 193 194 197 205 195 186 201 197 200 205 202 209 206 215 208 195 190 207 201 212 202 205 224 225 235 234 196 209 233 245 224
197 189 196 199 206 203 203 201 196 205 205 201 206 216 209 212 217 199 205 201 218 220 213 220 224 233 253 265 237 256 238 238
200 202 191 199 211 206 214 204 203 208 205 200 216 213 212 209 220 226 211 216 202 225 228 228 225 241 238 234 237 232 250 253
196 200 188 202 207 220 199 216 212 209 216 210 204 226 213 213 218 219 229 227 223 220 227 226 225 236 226 235 232 234 225 234
190 201 193 198 205 208 221 209 217 211 219 209 202 215 229 223 222 224 225 226 234 234 234 236 249 235 239 232 228 237 244 233
186 194 200 199 205 204 213 215 213 222 214 219 208 211 224 218 232 226 231 228 227 227 235 236 238 234 241 235 232 233 229 232
195 191 204 200 206 211 212 219 213 218 224 219 211 213 217 225 223 231 225 229 232 234 230 236 241 226 260 242 237 240 237 250
203 192 200 201 203 212 218 220 219 220 219 224 219 209 212 217 229 227 221 227 229 227 234 237 236 242 237 252 264 243 227 217
203 200 192 195 204 206 213 217 218 220 223 225 223 220 209 214 225 224 227 227 228 227 233 233 245 225 239 241 241 236 245 248
221 206 201 201 211 215 218 217 223 222 224 222 224 221 220 216 219 226 221 222 225 227 230 229 232 236 232 246 254 243 248 266
224 218 209 207 213 213 220 230 233 226 222 222 217 222 222 222 224 222 229 223 224 218 222 223 228 219 223 203 186 229 196 168
240 229 211 214 206 220 222 230 230 234 233 230 225 212 219 226 224 231 225 231 224 226 216 221 219 227 212 221 234 247 204 208
225 234 229 217 208 218 227 240 246 250 245 240 231 224 218 217 224 223 233 227 236 228 220 221 230 231 229 194 241 256 340 240
104 168 187 211 216 219 229 252 251 248 255 256 255 241 233 227 223 228 228 236 239 237 230 220 221 226 232 207 204 183 194 202
85 102 149 205 214 225 229 235 246 257 257 258 261 251 242 237 224 225 231 236 236 236 231 228 224 226 223 221 215 222 210 208
61 65 110 172 213 242 246 251 250 252 252 250 258 253 255 254 206 211 220 227 233 234 232 230 224 224 229 226 210 219 212 182